Tracking 31027 objects as of 19-Jul-2025
HD Live streaming from Space Station
objects crossing your sky now

SL-12 R/B(AUX MOTOR)

Track SL-12 R/B(AUX MOTOR) now!
10-day predictions


NORAD ID: 18374
Int'l Code: 1987-079G
Perigee: 387.9 km
Apogee: 18,423.9 km
Inclination: 65.1 °
Period: 328.7 minutes
Semi major axis: 15776 km
RCS: 0.6049 m2 (medium)
Launch date: September 16, 1987
Source: Commonwealth of Independent States (former USSR) (CIS)
Launch site: TYURATAM MISSILE AND SPACE COMPLEX (TTMTR)

Note: This is a ROCKET BODY
Your satellite tracking list
Your tracking list is empty




NASA's NSSDC Master Catalog

Two Line Element Set (TLE):
1 18374U 87079G   25199.51985053  .00000554  00000-0  42083-3 0  9990
2 18374  65.0613  36.0965 5715957   2.8564 359.4073  4.38097822591086
Source of the keplerian elements: AFSPC